Stations météo

réclame
Mon MeteoGroup
Yeovilton, Grande-Bretagne (3853): Température de l'air & dewpoint: 18.11.2020 23:00:00 - 24.11.2020 23:00:00 (GMT)Yeovilton, Grande-Bretagne (3853): Température de l'air -20cm & Température de l'air -100cm: 18.11.2020 23:00:00 - 24.11.2020 23:00:00 (GMT)Yeovilton, Grande-Bretagne (3853): Vitesse du vent & gusts: 18.11.2020 23:00:00 - 24.11.2020 23:00:00 (GMT)Yeovilton, Grande-Bretagne (3853): Direction du vent: 18.11.2020 23:00:00 - 24.11.2020 23:00:00 (GMT)Yeovilton, Grande-Bretagne (3853): reduced air pressure: 18.11.2020 23:00:00 - 24.11.2020 23:00:00 (GMT)Yeovilton, Grande-Bretagne (3853): visibility: 18.11.2020 23:00:00 - 24.11.2020 23:00:00 (GMT)Yeovilton, Grande-Bretagne (3853): Ensoleillement: 18.11.2020 23:00:00 - 24.11.2020 23:00:00 (GMT)Yeovilton, Grande-Bretagne (3853): Quantités de précipitations: 18.11.2020 23:00:00 - 24.11.2020 23:00:00 (GMT)
Date & Time tt [°C] td [°C] tt -20cm [°C] tt -100cm [°C] ff [km/h] ff [knt] fx [km/h] fx [knt] dd ppp [hPa] vv [km] sd [min] rr [mm]
24.11.2020 23:00:00 - - - - - - - - - - - - -
24.11.2020 22:00:00 12,8 10,6 - - 26 14 - - S 1009,5 10 0 0,0
24.11.2020 21:00:00 12,8 10,3 - - 21 11 - - S 1009,8 10 0 0,0
24.11.2020 20:00:00 12,4 9,9 - - 24 13 - - S 1010,1 10 0 0,0
24.11.2020 19:00:00 12,0 9,5 - - 22 12 - - S 1010,3 10 0 0,0
24.11.2020 18:00:00 11,6 9,1 - - 22 12 - - SSE 1010,6 10 0 0,0
24.11.2020 17:00:00 11,2 8,5 - - 16 9 - - SSE 1011,0 10 0 0,0
24.11.2020 16:00:00 11,9 8,8 - - 21 11 - - S 1011,6 10 0 0,0
24.11.2020 15:00:00 12,2 8,7 - - 24 13 - - S 1012,2 10 30 0,0
24.11.2020 14:00:00 12,9 8,5 - - 34 18 46 25 S 1012,7 10 54 0,0
24.11.2020 13:00:00 12,7 8,6 - - 26 14 - - S 1014,0 10 54 0,0
24.11.2020 12:00:00 13,3 9,0 - - 22 12 - - SSE 1015,0 20 24 0,0
24.11.2020 11:00:00 11,8 8,8 - - 22 12 - - S 1016,1 10 0 0,0
24.11.2020 10:00:00 10,7 8,5 - - 18 10 - - S 1016,9 15 12 0,0
24.11.2020 09:00:00 10,0 8,1 10,2 11,2 13 7 - - SE 1017,6 20 0 0,0
24.11.2020 08:00:00 10,2 7,7 - - 15 8 - - SSE 1018,0 20 0 0,0
24.11.2020 07:00:00 11,0 8,5 - - 18 10 - - S 1017,9 10 0 0,0
24.11.2020 06:00:00 11,1 8,5 - - 15 8 - - S 1018,4 20 0 0,0
24.11.2020 05:00:00 11,4 8,9 - - 15 8 - - S 1019,0 40 0 0,0
24.11.2020 04:00:00 11,2 8,7 - - 16 9 - - S 1019,5 45 0 0,0
24.11.2020 03:00:00 11,3 8,5 - - 13 7 - - SW 1020,4 40 0 0,0
24.11.2020 02:00:00 10,7 9,0 - - 15 8 - - S 1021,1 30 0 0,0
24.11.2020 01:00:00 11,5 8,3 - - 24 13 - - SSW 1022,2 50 0 0,0
24.11.2020 00:00:00 11,7 9,0 - - 15 8 - - SSW 1022,6 50 - 0,0
23.11.2020 23:00:00 11,2 7,7 - - 9 5 - - SSE 1023,1 50 0 0,0
23.11.2020 22:00:00 11,2 8,3 - - 18 10 - - SSW 1023,9 16 0 0,0
23.11.2020 21:00:00 11,5 8,5 - - 21 11 - - SSW 1024,2 10 0 0,0
23.11.2020 20:00:00 11,1 9,5 - - 8 4 - - SW 1024,3 15 0 0,0
23.11.2020 19:00:00 10,6 9,3 - - 16 9 - - SSW 1024,4 10 0 0,0
23.11.2020 18:00:00 9,3 7,9 - - 11 6 - - S 1024,5 10 0 0,0
23.11.2020 17:00:00 9,3 7,5 - - 13 7 - - S 1025,1 20 0 0,0
23.11.2020 16:00:00 10,4 8,2 - - 15 8 - - S 1025,2 10 36 0,0
23.11.2020 15:00:00 11,2 8,7 - - 16 9 - - SSW 1025,6 20 30 0,0
23.11.2020 14:00:00 11,8 8,9 - - 18 10 - - S 1025,9 20 30 0,0
23.11.2020 13:00:00 12,1 10,6 - - 15 8 - - S 1026,4 10 12 0,0
23.11.2020 12:00:00 10,0 9,5 - - 2 1 - - W 1027,2 26 6 0,0
23.11.2020 11:00:00 8,3 8,0 - - 2 1 - - NW 1028,0 10 0 0,0
23.11.2020 10:00:00 6,9 6,6 - - 4 2 - - SE 1027,9 8 0 0,0
23.11.2020 09:00:00 5,4 5,1 10,2 11,0 4 2 - - S 1028,1 8 0 0,0
23.11.2020 08:00:00 4,2 3,9 - - 4 2 - - SE 1027,8 8 0 0,0
23.11.2020 07:00:00 4,0 3,7 - - 4 2 - - W 1027,7 5 0 0,0
23.11.2020 06:00:00 4,6 4,2 - - 4 2 - - S 1027,7 10 0 0,0
23.11.2020 05:00:00 5,2 4,8 - - 4 2 - - SE 1027,8 16 0 0,0
23.11.2020 04:00:00 5,6 5,3 - - 5 3 - - SE 1028,0 11 0 0,0
23.11.2020 03:00:00 5,3 4,9 - - 2 1 - - SE 1028,3 18 0 0,0
23.11.2020 02:00:00 5,1 4,7 - - 4 2 - - ESE 1028,2 8 0 0,0
23.11.2020 01:00:00 4,2 3,8 - - 5 3 - - SE 1028,3 9 0 0,0
23.11.2020 00:00:00 3,2 2,6 - - 4 2 - - SSE 1028,3 0,7 - 0,0
22.11.2020 23:00:00 4,7 3,9 - - 0 0 - - N 1028,2 0,3 0 0,0
22.11.2020 22:00:00 6,4 5,5 - - 0 0 - - N 1028,0 0,1 0 0,0
22.11.2020 21:00:00 8,0 6,9 - - 4 2 - - W 1027,9 16 0 0,0
22.11.2020 20:00:00 8,8 7,5 - - 2 1 - - WSW 1027,9 15 0 0,0
22.11.2020 19:00:00 8,9 7,3 - - 5 3 - - WNW 1027,6 10 0 0,0
22.11.2020 18:00:00 9,4 7,1 - - 5 3 - - SW 1027,3 21 0 0,0
22.11.2020 17:00:00 10,1 7,2 - - 4 2 - - WNW 1027,2 30 0 0,0
22.11.2020 16:00:00 10,6 7,3 - - 4 2 - - NW 1026,9 10 0 0,0
22.11.2020 15:00:00 11,0 6,9 - - 2 1 - - W 1026,8 19 0 0,0
22.11.2020 14:00:00 11,1 6,6 - - 4 2 - - W 1027,1 40 0 0,0
22.11.2020 13:00:00 11,1 6,8 - - 4 2 - - W 1027,4 10 0 0,0
22.11.2020 12:00:00 10,9 9,1 - - 8 4 - - NNW 1027,9 10 0 0,0
22.11.2020 11:00:00 10,2 9,7 - - 5 3 - - NW 1028,0 18 0 0,0
22.11.2020 10:00:00 9,9 9,6 - - 5 3 - - W 1027,6 23 0 0,0
22.11.2020 09:00:00 9,2 8,9 10,4 11,4 5 3 - - W 1027,4 5 0 0,0
22.11.2020 08:00:00 9,2 8,8 - - 4 2 - - WSW 1027,0 7 0 0,0
22.11.2020 07:00:00 8,9 8,5 - - 4 2 - - W 1026,7 2,0 0 0,0
22.11.2020 06:00:00 9,4 8,9 - - 4 2 - - SW 1026,4 0,3 0 0,0
22.11.2020 05:00:00 10,1 9,5 - - 4 2 - - W 1026,3 15 0 0,0
22.11.2020 04:00:00 10,4 9,7 - - 5 3 - - SW 1026,3 27 0 0,2
22.11.2020 03:00:00 10,2 9,3 - - 15 8 - - W 1026,1 9 0 0,4
22.11.2020 02:00:00 10,8 9,1 - - 15 8 - - W 1025,8 2,3 0 0,0
22.11.2020 01:00:00 11,5 9,0 - - 13 7 - - SW 1025,5 17 0 0,0
22.11.2020 00:00:00 11,5 8,8 - - 9 5 - - SW 1025,7 50 - 0,0
21.11.2020 23:00:00 11,2 8,8 - - 9 5 - - SSW 1025,8 35 0 0,0
21.11.2020 22:00:00 11,3 8,9 - - 9 5 - - SSW 1026,0 10 0 0,0
21.11.2020 21:00:00 11,4 9,1 - - 16 9 - - SSW 1026,2 10 0 0,0
21.11.2020 20:00:00 11,4 9,3 - - 18 10 - - SSW 1026,2 50 0 0,0
21.11.2020 19:00:00 11,4 9,2 - - 15 8 - - S 1026,4 10 0 0,0
21.11.2020 18:00:00 11,3 9,1 - - 18 10 - - SSW 1026,3 50 0 0,0
21.11.2020 17:00:00 11,2 9,1 - - 15 8 - - SSW 1026,3 35 0 0,0
21.11.2020 16:00:00 11,2 9,3 - - 16 9 - - SSW 1026,2 45 0 0,0
21.11.2020 15:00:00 12,0 9,1 - - 11 6 - - SSW 1026,4 45 0 0,0
21.11.2020 14:00:00 12,1 8,3 - - 16 9 - - SW 1026,6 29 0 0,0
21.11.2020 13:00:00 12,1 7,9 - - 16 9 - - WSW 1027,0 50 0 0,0
21.11.2020 12:00:00 12,0 7,7 - - 18 10 - - WSW 1027,6 40 0 0,0
21.11.2020 11:00:00 11,9 7,3 - - 16 9 - - SW 1027,9 40 0 0,0
21.11.2020 10:00:00 11,6 6,9 - - 21 11 - - SW 1027,8 40 0 0,0
21.11.2020 09:00:00 11,2 6,7 10,0 11,4 15 8 - - SW 1028,2 35 0 0,0
21.11.2020 08:00:00 10,5 7,0 - - 11 6 - - SSW 1028,0 35 0 0,0
21.11.2020 07:00:00 11,1 6,7 - - 16 9 - - SW 1027,9 40 0 0,0
21.11.2020 06:00:00 10,7 6,9 - - 13 7 - - SW 1028,2 45 0 0,0
21.11.2020 05:00:00 10,8 7,5 - - 13 7 - - SW 1028,2 50 0 0,0
21.11.2020 04:00:00 10,8 7,5 - - 15 8 - - WSW 1028,3 50 0 0,0
21.11.2020 03:00:00 10,5 7,7 - - 15 8 - - SW 1028,5 45 0 0,0
21.11.2020 02:00:00 10,4 7,6 - - 21 11 - - SSW 1028,6 50 0 0,0
21.11.2020 01:00:00 10,1 7,3 - - 11 6 - - SW 1029,1 45 0 0,0
21.11.2020 00:00:00 10,4 7,3 - - 16 9 - - SW 1029,5 10 - 0,0
20.11.2020 23:00:00 10,3 7,2 - - 16 9 - - SW 1029,8 10 0 0,0
20.11.2020 22:00:00 10,1 7,7 - - 16 9 - - SSW 1030,0 40 0 0,0
20.11.2020 21:00:00 10,3 8,5 - - 16 9 - - SSW 1030,4 35 0 0,0
20.11.2020 20:00:00 11,0 9,3 - - 15 8 - - SSW 1030,7 40 0 0,0
20.11.2020 19:00:00 11,0 9,4 - - 13 7 - - SW 1030,9 10 0 0,0
20.11.2020 18:00:00 10,8 9,2 - - 15 8 - - SSW 1030,7 50 0 0,0
20.11.2020 17:00:00 10,5 8,9 - - 18 10 - - SW 1030,6 40 0 0,0
20.11.2020 16:00:00 10,5 9,2 - - 18 10 - - SSW 1030,7 10 0 0,0
20.11.2020 15:00:00 10,5 9,1 - - 18 10 - - SW 1031,3 4,5 0 0,0
20.11.2020 14:00:00 10,5 9,1 - - 15 8 - - SW 1031,9 10 0 0,0
20.11.2020 13:00:00 10,0 8,8 - - 15 8 - - SSW 1032,7 10 0 0,0
20.11.2020 12:00:00 9,7 8,5 - - 15 8 - - SW 1033,4 7 0 0,4
20.11.2020 11:00:00 9,5 8,3 - - 16 9 - - SW 1033,7 7 0 0,4
20.11.2020 10:00:00 9,0 8,0 - - 13 7 - - SSW 1034,1 10 0 0,4
20.11.2020 09:00:00 8,2 7,0 9,9 11,2 9 5 - - SSW 1034,1 8 0 0,8
20.11.2020 08:00:00 8,1 6,8 - - 11 6 - - SW 1034,5 10 0 0,0
20.11.2020 07:00:00 4,5 3,7 - - 5 3 - - SW 1034,5 10 0 0,0
20.11.2020 06:00:00 3,3 2,6 - - 8 4 - - S 1034,6 20 0 0,0
20.11.2020 05:00:00 2,5 1,9 - - 5 3 - - SE 1035,2 21 0 0,0
20.11.2020 04:00:00 2,2 1,6 - - 11 6 - - SE 1035,3 35 0 0,0
20.11.2020 03:00:00 1,5 0,8 - - 4 2 - - SE 1035,9 24 0 0,0
20.11.2020 02:00:00 1,4 0,8 - - 5 3 - - SE 1036,5 16 0 0,0
20.11.2020 01:00:00 0,6 -0,3 - - 4 2 - - ESE 1036,8 12 0 0,0
20.11.2020 00:00:00 0,8 -0,2 - - 4 2 - - ESE 1036,9 13 - 0,0
19.11.2020 23:00:00 1,5 0,4 - - 4 2 - - SSE 1037,0 21 0 0,0
19.11.2020 22:00:00 2,0 0,6 - - 0 0 - - N 1037,4 10 0 0,0
19.11.2020 21:00:00 2,8 0,9 - - 5 3 - - W 1036,2 20 0 0,0
19.11.2020 20:00:00 4,5 1,8 - - 8 4 - - WSW 1035,7 10 0 0,0
19.11.2020 19:00:00 5,6 2,9 - - 5 3 - - W 1035,0 15 0 0,0
19.11.2020 18:00:00 5,9 3,3 - - 5 3 - - WNW 1035,0 10 0 0,0
19.11.2020 17:00:00 6,7 3,3 - - 9 5 - - W 1034,5 20 0 0,0
19.11.2020 16:00:00 8,2 3,5 - - 21 11 - - NW 1033,7 15 6 0,0
19.11.2020 15:00:00 9,3 4,4 - - 16 9 - - NW 1032,9 10 18 0,0
19.11.2020 14:00:00 8,8 3,9 - - 21 11 46 25 NW 1031,6 20 18 0,0
19.11.2020 13:00:00 11,0 5,4 - - 37 20 61 33 WNW 1031,2 10 60 0,0
19.11.2020 12:00:00 10,4 5,2 - - 39 21 61 33 WNW 1031,0 12 60 0,0
19.11.2020 11:00:00 10,3 5,4 - - 37 20 61 33 WNW 1029,5 10 60 0,0
19.11.2020 10:00:00 9,7 5,5 - - 39 21 50 27 WNW 1028,0 10 54 0,0
19.11.2020 09:00:00 8,8 5,3 10,9 11,7 29 16 54 29 WNW 1027,1 10 0 0,0
19.11.2020 08:00:00 9,6 4,8 - - 35 19 57 31 WNW 1025,4 10 0 0,0
19.11.2020 07:00:00 9,5 4,1 - - 37 20 57 31 WNW 1024,0 10 0 0,0
19.11.2020 06:00:00 9,6 4,5 - - 41 22 54 29 WNW 1022,7 18 0 0,0
19.11.2020 05:00:00 9,3 4,3 - - 29 16 - - W 1022,4 24 0 0,0
19.11.2020 04:00:00 9,1 4,8 - - 24 13 52 28 W 1021,5 10 0 0,0
19.11.2020 03:00:00 9,6 4,8 - - 35 19 52 28 W 1020,9 25 0 0,0
19.11.2020 02:00:00 9,9 6,0 - - 22 12 48 26 WSW 1020,1 10 0 0,0
19.11.2020 01:00:00 9,7 5,1 - - 21 11 - - WSW 1019,7 21 0 0,0
19.11.2020 00:00:00 8,6 4,7 - - 13 7 - - SW 1020,0 19 - 0,0
18.11.2020 23:00:00 8,1 4,0 - - 13 7 - - WSW 1019,8 24 0 0,0

tt = Température de l'air
td = dewpoint
tt -20cm = Température de l'air -20cm
tt -100cm = Température de l'air -100cm
ff = Vitesse du vent
fx = gusts
dd = Direction du vent
ppp = reduced air pressure
vv = visibility
sd = Ensoleillement
rr = Quantités de précipitations

stations d'obs. à proximité